Location: Prescott
(34.5400°N, 112.4680°W)
Time: 06:24:37
(UTC-07:00)

Amateur Radio Satellites - All Passes

Search period start: 23 May 2015 05:54
Search period end: 24 May 2015 05:54
Location: Prescott, 34.5400°N, 112.4680°W

Satellite Date Start Highest point End Downlink Frequencies (MHz)
Time Altitude Azimuth
JAS-2 23 May 06:00:17 06:02:26 12° 295° (WNW) 06:04:17 435.910
VERMONT LUNAR 23 May 06:00:37 06:03:24 26° 2° (N) 06:06:11 437.305
STRAND 1 23 May 06:15:18 06:20:02 41° 72° (ENE) 06:24:50 437.568
CUBESAT XI-V 23 May 06:41:25 06:45:43 40° 262° (W) 06:50:03 437.345
PRISM 23 May 06:42:59 06:47:04 80° 257° (WSW) 06:51:10 437.425
Cosmos 2491 23 May 06:48:32 06:57:21 68° 81° (E) 07:06:06 435.465 / 435.565
CUTE-I 23 May 06:50:58 06:56:21 83° 101° (E) 07:01:44 437.470
Cubesat XI-IV 23 May 07:10:19 07:15:37 64° 286° (WNW) 07:20:55 437.490
AO-7 23 May 07:15:01 07:17:26 11° 308° (NW) 07:19:14 29.400- 29.500
PHONESAT 2.4 23 May 07:15:02 07:18:07 29° 2° (N) 07:21:12 2401.200-2431.200
M-CUBED/EXP-1 PRIME 23 May 07:15:15 07:19:30 41° 256° (WSW) 07:23:27 437.505
BRITE-PL 23 May 07:17:04 07:19:42 14° 88° (E) 07:22:38 437.365/2234.400
AUBIESAT-1 23 May 07:27:46 07:31:49 34° 257° (WSW) 07:35:35 437.475
YUBILEINY 23 May 07:36:41 07:45:22 70° 93° (E) 07:54:04 435.215
VERMONT LUNAR 23 May 07:37:51 07:41:00 50° 18° (NNE) 07:44:08 437.305
GOMX 1 23 May 07:41:22 07:44:02 14° 88° (E) 07:46:57 467.674
ISS 23 May 07:44:10 07:47:25 60° 41° (NE) 07:50:38 145.825
RS-15 23 May 07:52:27 08:00:36 27° 105° (ESE) 08:09:19 29.354- 29.394
STRAND 1 23 May 07:55:50 07:59:27 19° 267° (W) 08:02:53 437.568
CANX-2 23 May 08:04:48 08:06:38 13° 91° (E) 08:08:41 2200.000
CUTE 1.7 + AOD 2 23 May 08:09:01 08:10:51 13° 91° (E) 08:12:55 437.475
AIST 1 23 May 08:19:42 08:24:05 84° 264° (W) 08:28:28
HO-68 23 May 08:27:36 08:33:54 34° 97° (E) 08:40:17 435.675
CUTE-I 23 May 08:34:15 08:35:49 11° 296° (WNW) 08:37:02 437.470
SEEDS 23 May 08:37:05 08:40:24 23° 95° (E) 08:43:47 437.485
Cosmos 2491 23 May 08:47:07 08:53:31 22° 276° (W) 08:59:28 435.465 / 435.565
BRITE-PL 23 May 08:53:08 08:58:48 67° 285° (WNW) 09:04:12 437.365/2234.400
PHONESAT 2.4 23 May 08:53:13 08:56:37 55° 18° (NNE) 09:00:02 2401.200-2431.200
COMPASS 1 23 May 08:56:49 09:00:31 32° 97° (E) 09:04:15 437.405
DOVE 4 23 May 09:00:41 09:05:49 62° 100° (E) 09:10:39 437.250
CINEMA 3 23 May 09:09:55 09:14:14 34° 96° (E) 09:18:24 145.822/145.860
AAUSAT CUBESAT 2 23 May 09:12:25 09:16:21 42° 98° (E) 09:20:17 437.432
VERMONT LUNAR 23 May 09:15:17 09:18:06 28° 212° (SSW) 09:20:55 437.305
GOMX 1 23 May 09:17:19 09:22:40 59° 285° (WNW) 09:27:43 467.674
TIGRISAT 23 May 09:19:16 09:22:07 17° 69° (ENE) 09:25:08 435.000
Oscar 11 23 May 09:35:14 09:39:08 34° 97° (E) 09:43:04 145.826/435.025
Cosmos 2504 23 May 09:35:18 09:43:00 40° 90° (E) 09:50:24 435.465 / 435.565
YUBILEINY 23 May 09:36:29 09:43:04 22° 292° (WNW) 09:49:15 435.215
UNISAT 6 23 May 09:36:43 09:40:35 26° 71° (ENE) 09:44:31 437.425
CANX-2 23 May 09:38:51 09:42:49 40° 286° (WNW) 09:46:45 2200.000
CUTE 1.7 + AOD 2 23 May 09:43:03 09:47:01 40° 286° (WNW) 09:50:57 437.475
POPSAT HIP 1 23 May 09:46:28 09:48:23 13° 68° (ENE) 09:50:32 437.405
PCSat 23 May 09:49:09 09:52:36 17° 49° (NE) 09:56:13 145.827
UWE-3 23 May 09:49:10 09:53:13 35° 97° (E) 09:57:09 435.000/436.395/437.385
DUCHIFAT 1 23 May 09:51:29 09:53:45 15° 69° (ENE) 09:56:14 145.980
RS-15 23 May 10:01:15 10:12:07 70° 303° (WNW) 10:23:13 29.354- 29.394
DELFI C3 23 May 10:07:26 10:11:25 62° 100° (E) 10:15:22 145.870
FUNcube-1 23 May 10:10:19 10:14:31 47° 99° (E) 10:18:36 145.935
SEEDS 23 May 10:12:48 10:16:07 23° 289° (WNW) 10:19:20 437.485
HO-68 23 May 10:15:06 10:21:41 40° 292° (WNW) 10:28:08 435.675
ANTELSAT 23 May 10:18:58 10:23:40 79° 77° (ENE) 10:28:22 437.575/2403.000
POLYITAN 1 23 May 10:28:19 10:32:21 42° 74° (ENE) 10:36:27 437.675
QB50P1 23 May 10:28:42 10:32:41 41° 74° (ENE) 10:36:46 145.935-145.965
CUBEBUG 2 23 May 10:29:13 10:33:40 58° 285° (WNW) 10:37:54 437.445
PHONESAT 2.4 23 May 10:31:35 10:34:38 29° 213° (SSW) 10:37:41 2401.200-2431.200
BUGSAT 1 23 May 10:31:56 10:35:27 29° 72° (ENE) 10:39:05 437.445
COMPASS 1 23 May 10:33:16 10:35:59 17° 290° (WNW) 10:38:33 437.405
DOVE 4 23 May 10:40:21 10:42:59 14° 294° (WNW) 10:45:19 437.250
CINEMA 3 23 May 10:47:41 10:51:11 20° 291° (WNW) 10:54:27 145.822/145.860
ESTCUBE 1 23 May 10:47:58 10:50:43 16° 92° (E) 10:53:40 437.505/2401.250
ZACube-1 23 May 10:49:02 10:53:18 55° 285° (WNW) 10:57:26 437.345
AAUSAT CUBESAT 2 23 May 10:49:41 10:51:38 13° 291° (WNW) 10:53:22 437.432
TIGRISAT 23 May 10:54:02 10:58:32 43° 262° (W) 11:03:00 435.000
UKube-1 23 May 10:59:19 11:03:41 80° 102° (ESE) 11:08:01 .
VELOX 1 23 May 11:00:13 11:04:26 39° 99° (E) 11:08:38 145.980
NANOSAT C BR1 23 May 11:01:20 11:05:35 78° 258° (WSW) 11:09:52 145.865
DX 1 23 May 11:01:55 11:06:20 88° 292° (WNW) 11:10:44 434.975-435.025
QB50P2 23 May 11:06:17 11:10:31 65° 259° (W) 11:14:48 145.880/145.840
CUBEBUG 1 23 May 11:10:42 11:14:22 26° 95° (E) 11:18:07 437.445
Oscar 11 23 May 11:12:14 11:15:05 17° 290° (WNW) 11:17:46 145.826/435.025
UNISAT 6 23 May 11:13:19 11:17:17 26° 265° (W) 11:21:10 437.425
HUMSAT D 23 May 11:16:42 11:20:49 58° 284° (WNW) 11:24:52 437.325/437.525
POPSAT HIP 1 23 May 11:19:48 11:23:54 45° 261° (W) 11:28:02 437.405
DUCHIFAT 1 23 May 11:25:16 11:29:16 39° 262° (W) 11:33:17 145.980
UWE-3 23 May 11:26:33 11:29:28 17° 291° (WNW) 11:32:10 435.000/436.395/437.385
Cosmos 2504 23 May 11:28:38 11:36:25 37° 285° (WNW) 11:43:37 435.465 / 435.565
JUGNU 23 May 11:29:28 11:32:15 14° 168° (SSE) 11:35:06 437.505
AISAT 23 May 11:30:07 11:34:38 86° 281° (WNW) 11:39:07 437.250
PCSat 23 May 11:31:09 11:36:31 62° 247° (WSW) 11:41:50 145.827
50 SAT 23 May 11:34:42 11:38:32 61° 284° (WNW) 11:42:19 437.505
SO-50 23 May 11:47:13 11:49:47 14° 44° (NE) 11:52:31 436.795
FUNcube-1 23 May 11:48:30 11:50:26 13° 293° (WNW) 11:52:09 145.935
CUSAT 1 23 May 12:04:44 12:09:35 22° 84° (E) 12:15:23 437.405
SPROUT 23 May 12:05:16 12:08:58 28° 96° (E) 12:12:42 437.525
POLYITAN 1 23 May 12:06:19 12:08:31 13° 269° (W) 12:10:30 437.675
QB50P1 23 May 12:06:38 12:08:49 13° 269° (W) 12:10:46 145.935-145.965
GONETS M04 23 May 12:07:27 12:13:34 23° 84° (E) 12:20:07
BUGSAT 1 23 May 12:08:04 12:10:59 18° 267° (W) 12:13:47 437.445
RS-15 23 May 12:19:25 12:27:11 20° 330° (NNW) 12:34:44 29.354- 29.394
ESTCUBE 1 23 May 12:23:34 12:27:46 38° 287° (WNW) 12:31:56 437.505/2401.250
VELOX 1 23 May 12:37:50 12:40:41 16° 292° (WNW) 12:43:21 145.980
SRMSAT 23 May 12:40:01 12:41:37 11° 166° (SSE) 12:43:21 437.500
TISAT 1 23 May 12:44:02 12:48:15 58° 100° (E) 12:52:26 437.305
CUBEBUG 1 23 May 12:47:02 12:50:39 24° 289° (WNW) 12:54:08 437.445
DANDE 23 May 12:47:26 12:53:09 36° 88° (E) 13:00:14 436.750
Oscar 19 23 May 13:00:58 13:06:05 63° 74° (ENE) 13:11:14 437.125/150
ITAMSAT 1 23 May 13:07:51 13:11:27 20° 68° (ENE) 13:15:15 435.822/435.867
JUGNU 23 May 13:16:37 13:20:34 19° 178° (S) 13:24:31 437.505
ITUPSAT 1 23 May 13:18:19 13:21:40 19° 93° (E) 13:25:11 437.325
Gurwin Techsat 1B 23 May 13:21:36 13:25:52 26° 69° (ENE) 13:30:15 435.225
SO-50 23 May 13:26:00 13:30:57 74° 243° (WSW) 13:35:47 436.795
BEESAT 23 May 13:28:12 13:32:06 26° 95° (E) 13:36:05 436.000
SWISSCUBE 23 May 13:35:43 13:40:01 34° 97° (E) 13:44:23 437.505
SPROUT 23 May 13:41:36 13:44:55 21° 289° (WNW) 13:48:06 437.525
CUSAT 1 23 May 13:44:52 13:51:29 63° 282° (WNW) 13:59:29 437.405
GONETS M04 23 May 14:00:59 14:09:45 66° 280° (W) 14:18:33
Cosmos 2499 23 May 14:16:49 14:23:27 28° 88° (E) 14:29:58 435.465 / 435.565
JAS-2 23 May 14:21:41 14:26:33 22° 69° (ENE) 14:31:16 435.910
AO-7 23 May 14:22:03 14:28:27 27° 61° (ENE) 14:35:10 29.400- 29.500
TISAT 1 23 May 14:22:48 14:23:35 10° 293° (WNW) 14:24:04 437.305
HORYU 2 23 May 14:23:51 14:26:23 15° 68° (ENE) 14:29:06 437.375
SRMSAT 23 May 14:26:15 14:30:06 18° 175° (S) 14:33:57 437.500
DANDE 23 May 14:30:18 14:36:20 37° 290° (WNW) 14:43:35 436.750
KKS-1 23 May 14:36:04 14:39:32 22° 94° (E) 14:43:06 437.445
RS-15 23 May 14:42:42 14:46:08 12° 6° (N) 14:49:46 29.354- 29.394
Oscar 19 23 May 14:43:34 14:45:56 13° 270° (W) 14:47:58 437.125/150
ITAMSAT 1 23 May 14:45:50 14:50:41 41° 261° (W) 14:55:34 435.822/435.867
ITUPSAT 1 23 May 14:55:19 14:59:41 36° 288° (WNW) 15:04:01 437.325
O/OREOS (USA 219) 23 May 14:58:05 15:00:14 14° 101° (E) 15:02:38 437.305
Gurwin Techsat 1B 23 May 15:00:57 15:05:43 33° 263° (W) 15:10:28 435.225
JUGNU 23 May 15:05:20 15:08:54 16° 188° (S) 15:12:25 437.505
BEESAT 23 May 15:05:51 15:09:54 27° 290° (WNW) 15:13:51 436.000
SWISSCUBE 23 May 15:14:05 15:17:42 21° 291° (WNW) 15:21:11 437.505
CUSAT 1 23 May 15:35:09 15:36:19 10° 305° (NW) 15:36:47 437.405
STARS 23 May 15:49:08 15:53:36 82° 283° (WNW) 15:58:00 437.465
HORYU 2 23 May 15:58:26 16:02:42 42° 261° (W) 16:06:59 437.375
JAS-2 23 May 16:04:23 16:11:23 57° 259° (W) 16:17:35 435.910
Cosmos 2499 23 May 16:08:17 16:16:21 50° 281° (WNW) 16:23:49 435.465 / 435.565
KKS-1 23 May 16:12:20 16:16:09 27° 289° (WNW) 16:19:53 437.445
AO-7 23 May 16:12:35 16:20:46 62° 257° (WSW) 16:28:59 29.400- 29.500
SRMSAT 23 May 16:14:41 16:18:36 18° 185° (S) 16:22:29 437.500
CUTE-I 23 May 16:34:32 16:35:12 10° 63° (ENE) 16:36:13 437.470
O/OREOS (USA 219) 23 May 16:34:59 16:39:20 44° 294° (WNW) 16:43:39 437.305
Cubesat XI-IV 23 May 16:51:19 16:54:26 17° 66° (ENE) 16:57:48 437.490
RS-15 23 May 16:54:53 17:04:19 29° 40° (NE) 17:14:25 29.354- 29.394
MOZHAYETS 4 23 May 17:13:03 17:17:38 83° 285° (WNW) 17:22:12
BEESAT 3 23 May 17:19:59 17:20:51 11° 109° (ESE) 17:21:58 437.485
YUBILEINY 23 May 17:52:08 17:59:10 28° 71° (ENE) 18:06:28 435.215
Cosmos 2491 23 May 17:54:10 17:57:38 14° 80° (E) 18:01:52 435.465 / 435.565
BEESAT 2 23 May 18:00:50 18:04:17 27° 113° (ESE) 18:07:51 435.950
SRMSAT 23 May 18:04:58 18:07:04 12° 194° (SSW) 18:09:05 437.500
CUTE-I 23 May 18:09:20 18:14:38 86° 255° (WSW) 18:20:00 437.470
BRITE-PL 23 May 18:26:56 18:27:02 10° 63° (ENE) 18:27:31 437.365/2234.400
Cubesat XI-IV 23 May 18:28:57 18:34:08 54° 260° (W) 18:39:21 437.490
PRISM 23 May 18:29:42 18:32:31 18° 94° (E) 18:35:29 437.425
STRAND 1 23 May 18:30:12 18:33:41 19° 93° (E) 18:37:22 437.568
CUBESAT XI-V 23 May 18:41:10 18:45:50 65° 101° (E) 18:50:31 437.345
GOMX 1 23 May 18:47:35 18:48:38 11° 64° (ENE) 18:50:02 467.674
HO-68 23 May 18:54:21 18:58:46 18° 61° (ENE) 19:03:31 435.675
BEESAT 3 23 May 18:54:27 18:58:25 51° 302° (WNW) 19:02:26 437.485
M-CUBED/EXP-1 PRIME 23 May 19:01:22 19:03:00 13° 98° (E) 19:04:45 437.505
AIST 2 23 May 19:04:15 19:08:11 39° 114° (ESE) 19:12:12 435.215
RS-15 23 May 19:06:35 19:18:22 85° 242° (WSW) 19:30:34 29.354- 29.394
AUBIESAT-1 23 May 19:12:42 19:14:48 16° 99° (E) 19:17:02 437.475
SEEDS 23 May 19:27:50 19:29:07 11° 68° (ENE) 19:30:38 437.485
BEESAT 2 23 May 19:39:05 19:42:22 22° 308° (NW) 19:45:37 435.950
Cosmos 2491 23 May 19:44:38 19:53:26 86° 97° (E) 20:02:19 435.465 / 435.565
COMPASS 1 23 May 19:45:56 19:48:15 15° 70° (ENE) 19:50:45 437.405
YUBILEINY 23 May 19:48:04 19:56:28 55° 269° (W) 20:04:48 435.215
BRITE-PL 23 May 19:59:54 20:04:45 84° 256° (WSW) 20:10:04 437.365/2234.400
AAUSAT CUBESAT 2 23 May 20:00:38 20:03:32 19° 71° (ENE) 20:06:34 437.432
DOVE 4 23 May 20:02:09 20:06:49 42° 73° (ENE) 20:11:44 437.250
PRISM 23 May 20:04:24 20:08:01 29° 288° (WNW) 20:11:35 437.425
CINEMA 3 23 May 20:08:04 20:11:55 24° 70° (ENE) 20:15:55 145.822/145.860
STRAND 1 23 May 20:08:16 20:13:06 42° 288° (WNW) 20:17:55 437.568
GOMX 1 23 May 20:21:04 20:26:01 81° 260° (W) 20:31:20 467.674
CUBESAT XI-V 23 May 20:21:19 20:22:48 11° 293° (WNW) 20:23:59 437.345
Oscar 11 23 May 20:27:28 20:30:22 18° 70° (ENE) 20:33:24 145.826/435.025
CANX-2 23 May 20:27:42 20:31:59 87° 79° (E) 20:36:17 2200.000
CUTE 1.7 + AOD 2 23 May 20:31:50 20:36:07 87° 81° (E) 20:40:24 437.475
M-CUBED/EXP-1 PRIME 23 May 20:35:16 20:37:57 23° 292° (WNW) 20:40:34 437.505
HO-68 23 May 20:38:38 20:45:49 77° 256° (WSW) 20:53:02 435.675
UWE-3 23 May 20:43:06 20:46:33 21° 70° (ENE) 20:50:09 435.000/436.395/437.385
AIST 2 23 May 20:43:58 20:46:57 18° 310° (NW) 20:49:51 435.215
AIST 1 23 May 20:45:22 20:49:34 68° 95° (E) 20:53:49
AUBIESAT-1 23 May 20:47:10 20:49:36 19° 293° (WNW) 20:51:57 437.475
DELFI C3 23 May 20:51:57 20:55:07 23° 72° (ENE) 20:58:22 145.870
SEEDS 23 May 21:00:24 21:04:31 51° 261° (W) 21:08:39 437.485
FUNcube-1 23 May 21:02:39 21:06:24 26° 72° (ENE) 21:10:16 145.935
COMPASS 1 23 May 21:19:45 21:23:40 37° 262° (W) 21:27:33 437.405
RS-15 23 May 21:22:14 21:29:40 18° 257° (WSW) 21:36:13 29.354- 29.394
CUBEBUG 2 23 May 21:23:02 21:27:46 75° 77° (ENE) 21:32:33 437.445
Cosmos 2504 23 May 21:24:40 21:31:50 65° 81° (E) 21:38:59 435.465 / 435.565
AAUSAT CUBESAT 2 23 May 21:35:21 21:38:59 28° 264° (W) 21:42:35 437.432
ZACube-1 23 May 21:40:42 21:45:16 74° 77° (ENE) 21:49:53 437.345
DOVE 4 23 May 21:41:14 21:44:48 19° 269° (W) 21:48:19 437.250
CINEMA 3 23 May 21:44:29 21:48:55 33° 264° (W) 21:53:24 145.822/145.860
Cosmos 2491 23 May 21:46:10 21:51:39 17° 296° (WNW) 21:56:35 435.465 / 435.565
ESTCUBE 1 23 May 21:46:47 21:47:19 10° 66° (ENE) 21:48:08 437.505/2401.250
UKube-1 23 May 21:50:43 21:54:46 41° 73° (ENE) 21:58:52 .
DX 1 23 May 21:53:58 21:58:09 49° 74° (ENE) 22:02:23 434.975-435.025
VELOX 1 23 May 21:54:57 21:58:25 24° 70° (ENE) 22:01:59 145.980
Oscar 11 23 May 22:02:25 22:06:20 32° 263° (W) 22:10:13 145.826/435.025
HUMSAT D 23 May 22:04:28 22:08:43 60° 76° (ENE) 22:13:00 437.325/437.525
CUBEBUG 1 23 May 22:04:50 22:07:05 14° 68° (ENE) 22:09:33 437.445
50 SAT 23 May 22:15:39 22:19:28 43° 75° (ENE) 22:23:17 437.505
ANTELSAT 23 May 22:15:43 22:18:55 20° 93° (E) 22:22:12 437.575/2403.000
UWE-3 23 May 22:18:41 22:22:54 32° 264° (W) 22:27:06 435.000/436.395/437.385
AISAT 23 May 22:24:18 22:28:36 54° 75° (ENE) 22:32:59 437.250
DELFI C3 23 May 22:27:02 22:30:11 21° 266° (W) 22:33:14 145.870
FUNcube-1 23 May 22:38:52 22:42:41 25° 265° (W) 22:46:25 145.935
CUSAT 1 23 May 22:48:47 22:51:54 13° 58° (ENE) 22:55:11 437.405
TIGRISAT 23 May 22:49:27 22:53:43 50° 99° (E) 22:57:54 435.000
NANOSAT C BR1 23 May 22:50:32 22:53:48 22° 94° (E) 22:57:10 145.865
QB50P2 23 May 22:55:38 22:59:13 26° 96° (E) 23:02:50 145.880/145.840
SPROUT 23 May 22:57:21 22:59:38 15° 69° (ENE) 23:02:08 437.525
UNISAT 6 23 May 23:08:12 23:12:37 89° 84° (E) 23:16:56 437.425
POPSAT HIP 1 23 May 23:08:32 23:12:30 36° 97° (E) 23:16:27 437.405
DUCHIFAT 1 23 May 23:13:22 23:17:24 40° 98° (E) 23:21:25 145.980
ESTCUBE 1 23 May 23:19:16 23:23:43 64° 259° (W) 23:28:10 437.505/2401.250
Cosmos 2504 23 May 23:20:03 23:24:35 17° 276° (W) 23:28:42 435.465 / 435.565
UKube-1 23 May 23:28:51 23:31:08 14° 268° (W) 23:33:13 .
VELOX 1 23 May 23:31:09 23:34:53 26° 265° (W) 23:38:32 145.980
TISAT 1 23 May 23:33:05 23:36:39 27° 72° (ENE) 23:40:17 437.305
DX 1 23 May 23:33:10 23:34:45 11° 269° (W) 23:36:04 434.975-435.025
DANDE 23 May 23:33:59 23:40:27 28° 66° (ENE) 23:46:06 436.750
CUBEBUG 1 23 May 23:39:01 23:43:08 42° 262° (W) 23:47:16 437.445
ANTELSAT 23 May 23:51:58 23:55:45 28° 289° (WNW) 23:59:23 437.575/2403.000
BUGSAT 1 23 May 23:52:11 23:56:30 84° 104° (ESE) 00:00:44 437.445
QB50P1 23 May 23:52:47 23:57:02 61° 285° (WNW) 00:01:13 145.935-145.965
POLYITAN 1 23 May 23:52:49 23:57:03 60° 285° (WNW) 00:01:14 437.675
50 SAT 23 May 23:53:04 23:54:26 11° 269° (W) 23:55:33 437.505
AISAT 24 May 00:04:14 00:05:36 11° 270° (W) 00:06:40 437.250
GONETS M04 24 May 00:15:49 00:24:20 54° 78° (ENE) 00:32:50
ISS 24 May 00:20:43 00:23:54 57° 319° (NW) 00:27:08 145.825
ITUPSAT 1 24 May 00:22:38 00:25:23 16° 68° (ENE) 00:28:21 437.325
NANOSAT C BR1 24 May 00:26:03 00:29:37 25° 288° (WNW) 00:33:05 145.865
PCSat 24 May 00:26:47 00:31:16 28° 109° (ESE) 00:35:55 145.827
TIGRISAT 24 May 00:28:12 00:30:03 12° 293° (WNW) 00:31:41 435.000
CUSAT 1 24 May 00:28:44 00:36:11 89° 272° (W) 00:41:54 437.405
SPROUT 24 May 00:31:20 00:35:25 40° 262° (W) 00:39:30 437.525
QB50P2 24 May 00:31:40 00:35:00 21° 289° (WNW) 00:38:11 145.880/145.840
BEESAT 24 May 00:31:52 00:35:16 21° 69° (ENE) 00:38:50 436.000
SWISSCUBE 24 May 00:39:15 00:43:09 27° 70° (ENE) 00:47:09 437.505
POPSAT HIP 1 24 May 00:45:24 00:48:06 16° 291° (WNW) 00:50:37 437.405
DUCHIFAT 1 24 May 00:50:29 00:52:53 14° 292° (WNW) 00:55:05 145.980
TISAT 1 24 May 01:09:14 01:12:26 20° 266° (W) 01:15:32 437.305
O/OREOS (USA 219) 24 May 01:10:22 01:13:01 16° 58° (ENE) 01:15:50 437.305
DANDE 24 May 01:16:36 01:24:12 50° 269° (W) 01:30:13 436.750
Oscar 19 24 May 01:16:38 01:21:03 29° 96° (E) 01:25:31 437.125/150
KKS-1 24 May 01:32:04 01:34:22 14° 68° (ENE) 01:36:52 437.445
Gurwin Techsat 1B 24 May 01:42:39 01:44:52 13° 90° (E) 01:47:27 435.225
VERMONT LUNAR 24 May 01:50:39 01:53:18 24° 147° (SSE) 01:55:59 437.305
ITUPSAT 1 24 May 01:58:23 02:02:57 45° 261° (W) 02:07:31 437.325
Cosmos 2499 24 May 02:03:34 02:10:13 44° 77° (ENE) 02:17:01 435.465 / 435.565
BEESAT 24 May 02:08:35 02:12:56 34° 263° (W) 02:17:14 436.000
PCSat 24 May 02:09:43 02:14:36 33° 304° (WNW) 02:19:28 145.827
GONETS M04 24 May 02:13:34 02:20:46 28° 274° (W) 02:27:38
CUSAT 1 24 May 02:15:17 02:17:27 11° 281° (W) 02:18:59 437.405
SWISSCUBE 24 May 02:16:59 02:20:58 26° 265° (W) 02:24:53 437.505
STARS 24 May 02:42:21 02:46:40 55° 74° (ENE) 02:51:03 437.465
O/OREOS (USA 219) 24 May 02:48:28 02:52:40 40° 255° (WSW) 02:56:51 437.305
Oscar 19 24 May 02:55:58 03:00:20 28° 290° (WNW) 03:04:36 437.125/150
ITAMSAT 1 24 May 03:01:48 03:07:02 88° 289° (WNW) 03:12:17 435.822/435.867
KKS-1 24 May 03:06:22 03:10:39 45° 261° (W) 03:14:58 437.445
PHONESAT 2.4 24 May 03:16:01 03:19:09 32° 148° (SSE) 03:22:19 2401.200-2431.200
BEESAT 3 24 May 03:16:35 03:20:11 30° 54° (NE) 03:23:45 437.485
JAS-2 24 May 03:18:55 03:22:20 18° 93° (E) 03:26:01 435.910
Gurwin Techsat 1B 24 May 03:20:07 03:25:22 63° 286° (WNW) 03:30:36 435.225
VERMONT LUNAR 24 May 03:27:12 03:30:22 57° 340° (NNW) 03:33:32 437.305
AIST 2 24 May 03:31:18 03:32:26 11° 45° (NE) 03:33:45 435.215
SO-50 24 May 03:36:43 03:41:20 85° 118° (ESE) 03:46:10 436.795
HORYU 2 24 May 03:53:02 03:57:19 46° 99° (E) 04:01:34 437.375
Cosmos 2499 24 May 03:57:25 04:03:04 26° 273° (W) 04:08:34 435.465 / 435.565
BEESAT 2 24 May 04:00:29 04:04:35 77° 60° (ENE) 04:08:36 435.950
MOZHAYETS 4 24 May 04:11:19 04:15:49 60° 76° (ENE) 04:20:20
AO-7 24 May 04:17:59 04:26:12 58° 102° (ESE) 04:34:25 29.400- 29.500
STARS 24 May 04:22:18 04:23:32 11° 270° (W) 04:24:27 437.465
PHONESAT 2.4 24 May 04:53:49 04:57:13 51° 343° (NNW) 05:00:36 2401.200-2431.200
BEESAT 3 24 May 04:55:03 04:57:59 19° 249° (WSW) 05:00:45 437.485
JAS-2 24 May 05:02:53 05:07:44 40° 288° (WNW) 05:12:38 435.910
VERMONT LUNAR 24 May 05:05:08 05:07:55 27° 357° (N) 05:10:43 437.305
AIST 2 24 May 05:07:22 05:11:34 70° 243° (WSW) 05:15:39 435.215
SO-50 24 May 05:20:41 05:22:38 12° 317° (NW) 05:24:22 436.795
HORYU 2 24 May 05:31:17 05:33:36 14° 293° (WNW) 05:35:41 437.375
CUBESAT XI-V 24 May 05:41:11 05:45:28 41° 74° (ENE) 05:49:49 437.345
STRAND 1 24 May 05:43:03 05:46:33 20° 68° (ENE) 05:50:15 437.568
M-CUBED/EXP-1 PRIME 24 May 05:46:09 05:48:41 16° 66° (ENE) 05:51:17 437.505
MOZHAYETS 4 24 May 05:52:49 05:53:31 10° 271° (W) 05:53:51
